Location: Fiennes
(50.8274°N, 1.8253°E)
Time: 00:47:20
(UTC+00:00)

Okean-O - Pass Details

Date: 15 May 2026
Orbit: 627 x 629 km, 97.9° (Epoch: 9 June)

Event Time Altitude Azimuth Distance (km) Brightness Sun altitude
Exits shadow 20:14:57 - 152° (SSE) 2,410 5.0 -5.9°
Reaches altitude 10° 20:15:57 10° 151° (SSE) 2,004 4.6 -6.0°
Maximum altitude 20:20:14 60° 71° (ENE) 723 2.8 -6.5°
Drops below altitude 10° 20:24:34 10° 352° (N) 2,018 6.0 -7.0°
Sets 20:26:47 0° 349° (N) 2,930 7.0 -7.3°
